• In Uzbekistan
  • List of Countries
  • For 7 days
  • Water Temperature
  • Satellite Maps
  • Weather Map
  • Weather Widgets
  • user-avatar
    Login

    Hourly Weather Zadworze

    Today, 21 February, Thursday

    Time Temperature Precipitation Wind Pressure Humidity
    00:00 +1°C° 0 mm 2 mps 718 mmHg 90%
    01:00 +1°C° 0 mm 2 mps 718 mmHg 90%
    02:00 +1°C° 0 mm 2 mps 718 mmHg 91%
    03:00 -1°C° 0 mm 2 mps 718 mmHg 92%
    04:00 -1°C° 0 mm 2 mps 718 mmHg 93%
    05:00 -2°C° 0 mm 2 mps 718 mmHg 93%
    06:00 -1°C° 0 mm 2 mps 718 mmHg 93%
    07:00 -1°C° 0 mm 2 mps 719 mmHg 92%
    08:00 -1°C° 0 mm 2 mps 719 mmHg 91%
    09:00 +1°C° 0 mm 3 mps 719 mmHg 86%
    10:00 +2°C° 0 mm 3 mps 719 mmHg 81%
    11:00 +3°C° 0 mm 4 mps 719 mmHg 76%
    12:00 +3°C° 0 mm 4 mps 719 mmHg 74%
    13:00 +4°C° 0 mm 4 mps 719 mmHg 72%
    14:00 +4°C° 0 mm 4 mps 719 mmHg 71%
    15:00 +4°C° 0 mm 4 mps 719 mmHg 72%
    16:00 +4°C° 0 mm 3 mps 718 mmHg 74%
    17:00 +3°C° 0 mm 3 mps 718 mmHg 76%
    18:00 +3°C° 0 mm 3 mps 718 mmHg 77%
    19:00 +1°C° 0 mm 4 mps 718 mmHg 78%
    20:00 +1°C° 0 mm 4 mps 717 mmHg 78%
    21:00 +1°C° 0.2 mm 4 mps 717 mmHg 79%
    22:00 +1°C° 0.2 mm 4 mps 717 mmHg 81%
    23:00 +1°C° 0.2 mm 4 mps 716 mmHg 82%

    Tomorrow, 22 February, Friday

    Time Temperature Precipitation Wind Pressure Humidity
    00:00 +1°C° 0.6 mm 4 mps 716 mmHg 84%
    01:00 +1°C° 0.6 mm 4 mps 716 mmHg 86%
    02:00 +2°C° 0.6 mm 3 mps 715 mmHg 88%
    03:00 +2°C° 0.5 mm 3 mps 715 mmHg 89%
    04:00 +1°C° 0.5 mm 3 mps 714 mmHg 90%
    05:00 +1°C° 0.5 mm 3 mps 714 mmHg 92%
    06:00 +1°C° 1 mm 3 mps 714 mmHg 93%
    07:00 +1°C° 1 mm 3 mps 714 mmHg 94%
    08:00 +2°C° 1 mm 2 mps 714 mmHg 96%
    09:00 0°C° 1 mm 3 mps 715 mmHg 95%
    10:00 -3°C° 1 mm 4 mps 716 mmHg 95%
    11:00 -6°C° 1 mm 5 mps 717 mmHg 94%
    12:00 -6°C° 0.1 mm 6 mps 718 mmHg 90%
    13:00 -6°C° 0.1 mm 6 mps 719 mmHg 85%
    14:00 -6°C° 0.1 mm 6 mps 720 mmHg 80%
    15:00 -8°C° 0 mm 6 mps 720 mmHg 78%
    16:00 -8°C° 0 mm 6 mps 721 mmHg 75%
    17:00 -9°C° 0 mm 6 mps 721 mmHg 73%
    18:00 -9°C° 0 mm 6 mps 722 mmHg 74%
    19:00 -10°C° 0 mm 6 mps 723 mmHg 75%
    20:00 -11°C° 0 mm 6 mps 724 mmHg 76%
    21:00 -11°C° 0 mm 5 mps 724 mmHg 74%
    22:00 -12°C° 0 mm 5 mps 725 mmHg 72%
    23:00 -12°C° 0 mm 5 mps 725 mmHg 70%

    Day after tomorrow, 23 February, Saturday

    Time Temperature Precipitation Wind Pressure Humidity
    00:00 -12°C° 0 mm 5 mps 726 mmHg 69%
    01:00 -12°C° 0 mm 5 mps 726 mmHg 68%
    02:00 -11°C° 0 mm 4 mps 726 mmHg 67%
    03:00 -11°C° 0 mm 4 mps 726 mmHg 67%
    04:00 -12°C° 0 mm 4 mps 726 mmHg 68%
    05:00 -12°C° 0 mm 4 mps 727 mmHg 69%
    06:00 -12°C° 0 mm 4 mps 727 mmHg 70%
    07:00 -12°C° 0 mm 4 mps 727 mmHg 71%
    08:00 -12°C° 0 mm 4 mps 727 mmHg 72%
    09:00 -11°C° 0 mm 4 mps 728 mmHg 68%
    10:00 -11°C° 0 mm 4 mps 728 mmHg 65%
    11:00 -10°C° 0 mm 4 mps 728 mmHg 62%
    12:00 -9°C° 0 mm 4 mps 729 mmHg 60%
    13:00 -9°C° 0 mm 4 mps 729 mmHg 57%
    14:00 -8°C° 0 mm 4 mps 729 mmHg 55%
    15:00 -8°C° 0 mm 4 mps 728 mmHg 55%
    16:00 -8°C° 0 mm 4 mps 728 mmHg 55%
    17:00 -7°C° 0 mm 3 mps 728 mmHg 55%
    18:00 -8°C° 0 mm 3 mps 728 mmHg 59%
    19:00 -8°C° 0 mm 2 mps 728 mmHg 63%
    20:00 -8°C° 0 mm 2 mps 728 mmHg 67%
    21:00 -8°C° 0 mm 1 mps 728 mmHg 69%
    22:00 -8°C° 0 mm 1 mps 728 mmHg 70%
    23:00 -8°C° 0 mm 1 mps 729 mmHg 72%

    24 February, Sunday

    Time Temperature Precipitation Wind Pressure Humidity
    00:00 -8°C° 0 mm 1 mps 728 mmHg 72%
    01:00 -8°C° 0 mm 1 mps 728 mmHg 73%
    02:00 -9°C° 0 mm 0 mps 728 mmHg 73%
    03:00 -9°C° 0 mm 0 mps 728 mmHg 73%
    04:00 -9°C° 0 mm 0 mps 727 mmHg 72%
    05:00 -9°C° 0 mm 0 mps 727 mmHg 72%
    06:00 -9°C° 0 mm 0 mps 727 mmHg 70%
    07:00 -8°C° 0 mm 0 mps 727 mmHg 68%
    08:00 -8°C° 0 mm 0 mps 727 mmHg 66%
    09:00 -6°C° 0 mm 1 mps 727 mmHg 59%
    10:00 -4°C° 0 mm 1 mps 727 mmHg 52%
    11:00 -2°C° 0 mm 1 mps 727 mmHg 44%
    12:00 -3°C° 0 mm 2 mps 727 mmHg 46%
    13:00 -2°C° 0 mm 2 mps 727 mmHg 48%
    14:00 -1°C° 0 mm 2 mps 726 mmHg 49%
    15:00 -1°C° 0 mm 2 mps 726 mmHg 52%
    16:00 -1°C° 0 mm 2 mps 725 mmHg 54%
    17:00 -1°C° 0 mm 2 mps 725 mmHg 56%
    18:00 -1°C° 0 mm 2 mps 725 mmHg 58%
    19:00 -2°C° 0 mm 2 mps 725 mmHg 60%
    20:00 -2°C° 0 mm 2 mps 725 mmHg 62%
    21:00 -2°C° 0.1 mm 2 mps 724 mmHg 66%
    22:00 -2°C° 0.1 mm 2 mps 724 mmHg 69%
    23:00 -2°C° 0.1 mm 2 mps 724 mmHg 73%

    25 February, Monday

    Time Temperature Precipitation Wind Pressure Humidity
    00:00 -2°C° 0 mm 3 mps 723 mmHg 75%
    01:00 -2°C° 0 mm 3 mps 723 mmHg 78%
    02:00 -2°C° 0 mm 3 mps 722 mmHg 81%
    03:00 -2°C° 0.1 mm 3 mps 722 mmHg 84%
    04:00 -2°C° 0.1 mm 3 mps 722 mmHg 88%
    05:00 -3°C° 0.1 mm 4 mps 721 mmHg 92%
    06:00 -2°C° 0.2 mm 4 mps 721 mmHg 92%
    07:00 -2°C° 0.2 mm 5 mps 721 mmHg 92%
    08:00 -2°C° 0.2 mm 5 mps 721 mmHg 92%
    09:00 -3°C° 0.1 mm 6 mps 721 mmHg 90%
    10:00 -3°C° 0.1 mm 6 mps 721 mmHg 88%
    11:00 -3°C° 0.1 mm 6 mps 721 mmHg 86%
    12:00 -3°C° 0.1 mm 7 mps 721 mmHg 83%
    13:00 -3°C° 0.1 mm 7 mps 721 mmHg 81%
    14:00 -2°C° 0.1 mm 7 mps 721 mmHg 79%
    15:00 -2°C° 0 mm 7 mps 721 mmHg 76%
    16:00 -2°C° 0 mm 7 mps 720 mmHg 73%
    17:00 -2°C° 0 mm 7 mps 720 mmHg 70%
    18:00 -3°C° 0.2 mm 6 mps 721 mmHg 73%
    19:00 -3°C° 0.2 mm 6 mps 721 mmHg 77%
    20:00 -4°C° 0.2 mm 6 mps 721 mmHg 81%
    21:00 -4°C° 0.2 mm 6 mps 721 mmHg 82%
    22:00 -4°C° 0.2 mm 6 mps 721 mmHg 82%
    23:00 -4°C° 0.2 mm 6 mps 722 mmHg 83%

    26 February, Tuesday

    Time Temperature Precipitation Wind Pressure Humidity
    00:00 -5°C° 0.1 mm 5 mps 722 mmHg 86%
    01:00 -5°C° 0.1 mm 5 mps 722 mmHg 89%
    02:00 -5°C° 0.1 mm 5 mps 721 mmHg 91%
    03:00 -5°C° 0 mm 5 mps 721 mmHg 92%
    04:00 -5°C° 0 mm 5 mps 721 mmHg 93%
    05:00 -5°C° 0 mm 5 mps 721 mmHg 93%
    06:00 -5°C° 0 mm 5 mps 721 mmHg 93%
    07:00 -4°C° 0 mm 4 mps 721 mmHg 93%
    08:00 -4°C° 0 mm 4 mps 721 mmHg 92%
    09:00 -3°C° 0 mm 4 mps 721 mmHg 91%
    10:00 -3°C° 0 mm 4 mps 721 mmHg 90%
    11:00 -2°C° 0 mm 3 mps 721 mmHg 89%
    12:00 -1°C° 0 mm 3 mps 721 mmHg 87%
    13:00 0°C° 0 mm 3 mps 720 mmHg 85%
    14:00 +1°C° 0 mm 3 mps 720 mmHg 83%
    15:00 +1°C° 0 mm 3 mps 720 mmHg 83%
    16:00 +2°C° 0 mm 2 mps 719 mmHg 83%
    17:00 +2°C° 0 mm 2 mps 719 mmHg 83%
    18:00 +1°C° 0 mm 2 mps 719 mmHg 84%
    19:00 -1°C° 0 mm 2 mps 719 mmHg 85%
    20:00 0°C° 0 mm 1 mps 719 mmHg 87%
    21:00 0°C° 0 mm 1 mps 719 mmHg 87%
    22:00 -1°C° 0 mm 1 mps 719 mmHg 87%
    23:00 -1°C° 0 mm 1 mps 718 mmHg 87%
    Show more